カタログに戻る

DELTA 1 DEB

運用中UNKNOWN
NORAD 10864·DEBRIS·🇺🇸 United States

打ち上げ Jul 29, 1976 から Vandenberg Space Force Base

Loading…

次のパス (今後24時間)

TLE

最新Source: Space-Track

元期: Sep 12, 2026, 10:10 UTC

1 10864U 76077CS  26255.42361991  .00000039  00000-0  99247-3 0  9997
2 10864 101.0986 316.4195 0377044 215.3323 156.5281 11.75894122141597

AllMySatでDELTA 1 DEBをリアルタイム追跡

Download on the App Store